Wetterdaten: Montag, 30.11.2015
Datum Zeit Temp. A. Feuchte A. Luftdruck Regen Wind Richtung Richtung Sonnenschein ET UV Solar Taupunkt Windchill Windben Empfang
30.11.2015 00:00 8,5 C 81 % 1018,3 hPa 0,0 l/m 24,2 km/h (4 Bft) SW 220 0 min 0,000 mm 0,0 UV-I 0 W/m 5,4 C 0,0 C 38,6 km/h (5 Bft) 100,00 %
30.11.2015 00:05 8,6 C 81 % 1018,5 hPa 0,0 l/m 24,3 km/h (4 Bft) W 261 0 min 0,000 mm 0,0 UV-I 0 W/m 5,5 C 0,1 C 41,8 km/h (6 Bft) 98,23 %
30.11.2015 00:10 8,6 C 81 % 1018,4 hPa 0,0 l/m 23,5 km/h (4 Bft) W-SW 251 0 min 0,000 mm 0,0 UV-I 0 W/m 5,5 C 0,4 C 43,5 km/h (6 Bft) 99,15 %
30.11.2015 00:15 8,6 C 80 % 1018,4 hPa 0,0 l/m 27,8 km/h (4 Bft) SW 218 0 min 0,000 mm 0,0 UV-I 0 W/m 5,3 C -0,8 C 43,5 km/h (6 Bft) 100,00 %
30.11.2015 00:20 8,7 C 80 % 1018,5 hPa 0,0 l/m 24,8 km/h (4 Bft) SW 225 0 min 0,000 mm 0,0 UV-I 0 W/m 5,4 C 0,1 C 40,2 km/h (6 Bft) 99,17 %
30.11.2015 00:25 8,7 C 80 % 1018,6 hPa 0,0 l/m 22,6 km/h (4 Bft) SW 219 0 min 0,000 mm 0,0 UV-I 0 W/m 5,4 C 0,8 C 38,6 km/h (5 Bft) 99,13 %
30.11.2015 00:30 8,7 C 80 % 1018,8 hPa 0,0 l/m 23,0 km/h (4 Bft) W-SW 254 0 min 0,000 mm 0,0 UV-I 0 W/m 5,4 C 0,6 C 35,4 km/h (5 Bft) 98,33 %
30.11.2015 00:35 8,7 C 80 % 1018,7 hPa 0,0 l/m 23,1 km/h (4 Bft) SW 217 0 min 0,000 mm 0,0 UV-I 0 W/m 5,4 C 0,6 C 41,8 km/h (6 Bft) 100,00 %
30.11.2015 00:40 8,7 C 80 % 1018,6 hPa 0,0 l/m 18,6 km/h (3 Bft) W-SW 246 0 min 0,000 mm 0,0 UV-I 0 W/m 5,4 C 2,1 C 29,0 km/h (5 Bft) 100,00 %
30.11.2015 00:45 8,7 C 78 % 1018,6 hPa 0,0 l/m 23,2 km/h (4 Bft) W-SW 253 0 min 0,000 mm 0,0 UV-I 0 W/m 5,1 C 0,6 C 46,7 km/h (6 Bft) 97,50 %
30.11.2015 00:50 8,9 C 78 % 1018,6 hPa 0,0 l/m 22,1 km/h (4 Bft) W-SW 244 0 min 0,000 mm 0,0 UV-I 0 W/m 5,3 C 1,2 C 40,2 km/h (6 Bft) 99,11 %
30.11.2015 00:55 9,0 C 76 % 1018,6 hPa 0,0 l/m 20,7 km/h (4 Bft) SW 219 0 min 0,000 mm 0,0 UV-I 0 W/m 5,0 C 1,8 C 40,2 km/h (6 Bft) 99,11 %
30.11.2015 01:00 9,1 C 75 % 1018,5 hPa 0,0 l/m 19,2 km/h (3 Bft) W-SW 241 0 min 0,000 mm 0,0 UV-I 0 W/m 4,9 C 2,4 C 32,2 km/h (5 Bft) 97,56 %
30.11.2015 01:05 9,3 C 74 % 1018,4 hPa 0,0 l/m 23,0 km/h (4 Bft) W 265 0 min 0,051 mm 0,0 UV-I 0 W/m 4,9 C 1,4 C 40,2 km/h (6 Bft) 100,00 %
30.11.2015 01:10 9,4 C 73 % 1018,4 hPa 0,0 l/m 21,2 km/h (4 Bft) S-SW 205 0 min 0,000 mm 0,0 UV-I 0 W/m 4,8 C 2,1 C 35,4 km/h (5 Bft) 98,37 %
30.11.2015 01:15 9,6 C 71 % 1018,3 hPa 0,0 l/m 24,5 km/h (4 Bft) W-SW 238 0 min 0,000 mm 0,0 UV-I 0 W/m 4,6 C 1,4 C 43,5 km/h (6 Bft) 98,17 %
30.11.2015 01:20 9,7 C 70 % 1018,3 hPa 0,2 l/m 24,8 km/h (4 Bft) W-SW 238 0 min 0,000 mm 0,0 UV-I 0 W/m 4,5 C 1,5 C 40,2 km/h (6 Bft) 96,69 %
30.11.2015 01:25 9,9 C 69 % 1018,4 hPa 0,0 l/m 26,6 km/h (4 Bft) W-SW 249 0 min 0,000 mm 0,0 UV-I 0 W/m 4,5 C 1,3 C 48,3 km/h (6 Bft) 98,20 %
30.11.2015 01:30 9,9 C 69 % 1018,4 hPa 0,0 l/m 24,7 km/h (4 Bft) SW 225 0 min 0,000 mm 0,0 UV-I 0 W/m 4,5 C 1,8 C 37,0 km/h (5 Bft) 96,85 %
30.11.2015 01:35 9,9 C 69 % 1018,7 hPa 0,0 l/m 22,9 km/h (4 Bft) W-SW 254 0 min 0,000 mm 0,0 UV-I 0 W/m 4,5 C 2,3 C 46,7 km/h (6 Bft) 96,58 %
30.11.2015 01:40 9,9 C 69 % 1018,6 hPa 0,0 l/m 20,2 km/h (4 Bft) S-SW 211 0 min 0,000 mm 0,0 UV-I 0 W/m 4,5 C 3,1 C 35,4 km/h (5 Bft) 97,32 %
30.11.2015 01:45 10,0 C 69 % 1018,6 hPa 0,0 l/m 24,5 km/h (4 Bft) W-SW 251 0 min 0,000 mm 0,0 UV-I 0 W/m 4,6 C 2,0 C 54,7 km/h (7 Bft) 96,69 %
30.11.2015 01:50 10,1 C 68 % 1018,6 hPa 0,0 l/m 22,9 km/h (4 Bft) W 279 0 min 0,000 mm 0,0 UV-I 0 W/m 4,5 C 2,5 C 43,5 km/h (6 Bft) 99,03 %
30.11.2015 01:55 10,1 C 68 % 1018,5 hPa 0,0 l/m 22,4 km/h (4 Bft) SW 222 0 min 0,000 mm 0,0 UV-I 0 W/m 4,5 C 2,7 C 46,7 km/h (6 Bft) 99,21 %
30.11.2015 02:00 10,3 C 67 % 1018,7 hPa 0,0 l/m 27,5 km/h (4 Bft) W-NW 285 0 min 0,076 mm 0,0 UV-I 0 W/m 4,4 C 1,6 C 48,3 km/h (6 Bft) 97,58 %
30.11.2015 02:05 10,3 C 67 % 1018,7 hPa 0,0 l/m 28,6 km/h (4 Bft) SW 232 0 min 0,000 mm 0,0 UV-I 0 W/m 4,4 C 1,4 C 51,5 km/h (7 Bft) 100,00 %
30.11.2015 02:10 10,3 C 67 % 1018,5 hPa 0,0 l/m 23,4 km/h (4 Bft) W 262 0 min 0,000 mm 0,0 UV-I 0 W/m 4,4 C 2,7 C 45,1 km/h (6 Bft) 100,00 %
30.11.2015 02:15 10,3 C 66 % 1018,5 hPa 0,0 l/m 26,4 km/h (4 Bft) W 259 0 min 0,000 mm 0,0 UV-I 0 W/m 4,2 C 1,9 C 51,5 km/h (7 Bft) 99,19 %
30.11.2015 02:20 10,5 C 66 % 1018,4 hPa 0,0 l/m 29,8 km/h (5 Bft) W-SW 252 0 min 0,000 mm 0,0 UV-I 0 W/m 4,4 C 1,4 C 49,9 km/h (6 Bft) 100,00 %
30.11.2015 02:25 10,5 C 66 % 1018,4 hPa 0,0 l/m 27,8 km/h (4 Bft) W-SW 244 0 min 0,000 mm 0,0 UV-I 0 W/m 4,4 C 1,8 C 43,5 km/h (6 Bft) 99,08 %
30.11.2015 02:30 10,5 C 66 % 1018,5 hPa 0,0 l/m 25,9 km/h (4 Bft) W-SW 250 0 min 0,000 mm 0,0 UV-I 0 W/m 4,4 C 2,3 C 45,1 km/h (6 Bft) 98,33 %
30.11.2015 02:35 10,4 C 66 % 1018,3 hPa 0,0 l/m 27,7 km/h (4 Bft) SW 217 0 min 0,000 mm 0,0 UV-I 0 W/m 4,3 C 1,7 C 46,7 km/h (6 Bft) 100,00 %
30.11.2015 02:40 10,4 C 65 % 1018,4 hPa 0,0 l/m 29,7 km/h (5 Bft) W-SW 247 0 min 0,000 mm 0,0 UV-I 0 W/m 4,1 C 1,3 C 54,7 km/h (7 Bft) 98,39 %
30.11.2015 02:45 10,5 C 65 % 1018,4 hPa 0,0 l/m 32,1 km/h (5 Bft) W-SW 252 0 min 0,000 mm 0,0 UV-I 0 W/m 4,2 C 0,9 C 56,3 km/h (7 Bft) 98,15 %
30.11.2015 02:50 10,4 C 64 % 1018,3 hPa 0,0 l/m 32,4 km/h (5 Bft) SW 231 0 min 0,000 mm 0,0 UV-I 0 W/m 3,9 C 0,7 C 49,9 km/h (6 Bft) 100,00 %
30.11.2015 02:55 10,4 C 64 % 1018,1 hPa 0,0 l/m 34,5 km/h (5 Bft) SW 229 0 min 0,000 mm 0,0 UV-I 0 W/m 3,9 C 0,4 C 59,5 km/h (7 Bft) 97,46 %
30.11.2015 03:00 10,4 C 64 % 1018,0 hPa 0,0 l/m 31,5 km/h (5 Bft) W 259 0 min 0,102 mm 0,0 UV-I 0 W/m 3,9 C 0,9 C 49,9 km/h (6 Bft) 98,37 %
30.11.2015 03:05 10,4 C 64 % 1018,0 hPa 0,0 l/m 30,8 km/h (5 Bft) W-SW 244 0 min 0,000 mm 0,0 UV-I 0 W/m 3,9 C 1,1 C 51,5 km/h (7 Bft) 99,15 %
30.11.2015 03:10 10,3 C 65 % 1018,0 hPa 0,0 l/m 28,3 km/h (4 Bft) S-SW 209 0 min 0,000 mm 0,0 UV-I 0 W/m 4,0 C 1,4 C 49,9 km/h (6 Bft) 98,90 %
30.11.2015 03:15 10,3 C 65 % 1017,9 hPa 0,0 l/m 31,6 km/h (5 Bft) SW 232 0 min 0,000 mm 0,0 UV-I 0 W/m 4,0 C 0,8 C 56,3 km/h (7 Bft) 100,00 %
30.11.2015 03:20 10,4 C 65 % 1017,8 hPa 0,0 l/m 33,8 km/h (5 Bft) SW 223 0 min 0,000 mm 0,0 UV-I 0 W/m 4,1 C 0,5 C 54,7 km/h (7 Bft) 97,32 %
30.11.2015 03:25 10,5 C 65 % 1017,9 hPa 0,0 l/m 27,3 km/h (4 Bft) S-SW 196 0 min 0,000 mm 0,0 UV-I 0 W/m 4,2 C 2,0 C 51,5 km/h (7 Bft) 97,37 %
30.11.2015 03:30 10,5 C 65 % 1017,9 hPa 0,0 l/m 26,1 km/h (4 Bft) W-SW 244 0 min 0,000 mm 0,0 UV-I 0 W/m 4,2 C 2,2 C 49,9 km/h (6 Bft) 97,64 %
30.11.2015 03:35 10,5 C 65 % 1017,7 hPa 0,0 l/m 26,6 km/h (4 Bft) W-SW 252 0 min 0,000 mm 0,0 UV-I 0 W/m 4,2 C 2,1 C 48,3 km/h (6 Bft) 97,25 %
30.11.2015 03:40 10,5 C 65 % 1017,7 hPa 0,0 l/m 29,6 km/h (5 Bft) W 267 0 min 0,000 mm 0,0 UV-I 0 W/m 4,2 C 1,4 C 53,1 km/h (7 Bft) 97,56 %
30.11.2015 03:45 10,6 C 64 % 1017,6 hPa 0,0 l/m 29,5 km/h (5 Bft) SW 220 0 min 0,000 mm 0,0 UV-I 0 W/m 4,1 C 1,6 C 46,7 km/h (6 Bft) 97,32 %
30.11.2015 03:50 10,7 C 64 % 1017,5 hPa 0,0 l/m 32,6 km/h (5 Bft) W-SW 254 0 min 0,000 mm 0,0 UV-I 0 W/m 4,2 C 1,1 C 59,5 km/h (7 Bft) 97,56 %
30.11.2015 03:55 10,8 C 63 % 1017,6 hPa 0,0 l/m 32,0 km/h (5 Bft) S-SW 207 0 min 0,000 mm 0,0 UV-I 0 W/m 4,0 C 1,4 C 54,7 km/h (7 Bft) 98,21 %
30.11.2015 04:00 10,8 C 63 % 1017,7 hPa 0,0 l/m 35,4 km/h (5 Bft) W-SW 252 0 min 0,127 mm 0,0 UV-I 0 W/m 4,0 C 0,8 C 66,0 km/h (8 Bft) 100,00 %
30.11.2015 04:05 10,7 C 63 % 1017,7 hPa 0,0 l/m 29,2 km/h (5 Bft) W-SW 246 0 min 0,000 mm 0,0 UV-I 0 W/m 3,9 C 1,8 C 45,1 km/h (6 Bft) 98,06 %
30.11.2015 04:10 10,7 C 64 % 1017,8 hPa 0,0 l/m 30,3 km/h (5 Bft) W 266 0 min 0,000 mm 0,0 UV-I 0 W/m 4,2 C 1,6 C 49,9 km/h (6 Bft) 99,08 %
30.11.2015 04:15 10,7 C 63 % 1017,6 hPa 0,0 l/m 34,8 km/h (5 Bft) S-SW 209 0 min 0,000 mm 0,0 UV-I 0 W/m 3,9 C 0,7 C 64,4 km/h (8 Bft) 99,13 %
30.11.2015 04:20 10,8 C 63 % 1018,0 hPa 0,0 l/m 34,1 km/h (5 Bft) W-SW 248 0 min 0,000 mm 0,0 UV-I 0 W/m 4,0 C 1,0 C 59,5 km/h (7 Bft) 99,19 %
30.11.2015 04:25 10,8 C 63 % 1018,0 hPa 0,0 l/m 26,0 km/h (4 Bft) W 261 0 min 0,000 mm 0,0 UV-I 0 W/m 4,0 C 2,7 C 46,7 km/h (6 Bft) 98,17 %
30.11.2015 04:30 10,8 C 63 % 1018,2 hPa 0,0 l/m 28,5 km/h (4 Bft) SW 232 0 min 0,000 mm 0,0 UV-I 0 W/m 4,0 C 2,1 C 49,9 km/h (6 Bft) 100,00 %
30.11.2015 04:35 10,8 C 62 % 1018,0 hPa 0,0 l/m 25,8 km/h (4 Bft) W 263 0 min 0,000 mm 0,0 UV-I 0 W/m 3,8 C 2,7 C 46,7 km/h (6 Bft) 99,19 %
30.11.2015 04:40 10,8 C 62 % 1018,0 hPa 0,0 l/m 32,6 km/h (5 Bft) W-SW 246 0 min 0,000 mm 0,0 UV-I 0 W/m 3,8 C 1,3 C 53,1 km/h (7 Bft) 99,17 %
30.11.2015 04:45 10,9 C 62 % 1018,2 hPa 0,0 l/m 27,8 km/h (4 Bft) W 273 0 min 0,000 mm 0,0 UV-I 0 W/m 3,9 C 2,4 C 43,5 km/h (6 Bft) 99,10 %
30.11.2015 04:50 10,9 C 62 % 1018,2 hPa 0,0 l/m 26,2 km/h (4 Bft) W-SW 243 0 min 0,000 mm 0,0 UV-I 0 W/m 3,9 C 2,8 C 41,8 km/h (6 Bft) 98,31 %
30.11.2015 04:55 10,9 C 61 % 1018,3 hPa 0,0 l/m 32,7 km/h (5 Bft) W 279 0 min 0,000 mm 0,0 UV-I 0 W/m 3,7 C 1,4 C 53,1 km/h (7 Bft) 100,00 %
30.11.2015 05:00 11,1 C 61 % 1018,1 hPa 0,0 l/m 34,5 km/h (5 Bft) SW 223 0 min 0,127 mm 0,0 UV-I 0 W/m 3,9 C 1,4 C 56,3 km/h (7 Bft) 99,17 %
30.11.2015 05:05 11,0 C 62 % 1017,9 hPa 0,0 l/m 33,9 km/h (5 Bft) W 259 0 min 0,000 mm 0,0 UV-I 0 W/m 4,0 C 1,3 C 57,9 km/h (7 Bft) 100,00 %
30.11.2015 05:10 11,1 C 61 % 1017,8 hPa 0,0 l/m 33,4 km/h (5 Bft) W 273 0 min 0,000 mm 0,0 UV-I 0 W/m 3,9 C 1,6 C 53,1 km/h (7 Bft) 100,00 %
30.11.2015 05:15 11,1 C 61 % 1018,2 hPa 0,0 l/m 30,9 km/h (5 Bft) W-SW 247 0 min 0,000 mm 0,0 UV-I 0 W/m 3,9 C 2,0 C 51,5 km/h (7 Bft) 99,06 %
30.11.2015 05:20 11,1 C 62 % 1018,0 hPa 0,0 l/m 36,1 km/h (5 Bft) W 271 0 min 0,000 mm 0,0 UV-I 0 W/m 4,1 C 1,1 C 64,4 km/h (8 Bft) 100,00 %
30.11.2015 05:25 11,1 C 61 % 1018,0 hPa 0,0 l/m 35,4 km/h (5 Bft) W 267 0 min 0,000 mm 0,0 UV-I 0 W/m 3,9 C 1,2 C 70,8 km/h (8 Bft) 99,07 %
30.11.2015 05:30 11,1 C 62 % 1018,1 hPa 0,0 l/m 35,5 km/h (5 Bft) SW 233 0 min 0,000 mm 0,0 UV-I 0 W/m 4,1 C 1,2 C 56,3 km/h (7 Bft) 97,46 %
30.11.2015 05:35 11,1 C 62 % 1018,0 hPa 0,0 l/m 28,8 km/h (4 Bft) W-SW 250 0 min 0,000 mm 0,0 UV-I 0 W/m 4,1 C 2,5 C 46,7 km/h (6 Bft) 98,11 %
30.11.2015 05:40 11,0 C 62 % 1018,1 hPa 0,0 l/m 29,2 km/h (5 Bft) W 269 0 min 0,000 mm 0,0 UV-I 0 W/m 4,0 C 2,2 C 57,9 km/h (7 Bft) 97,04 %
30.11.2015 05:45 10,9 C 62 % 1017,8 hPa 0,0 l/m 33,0 km/h (5 Bft) SW 230 0 min 0,000 mm 0,0 UV-I 0 W/m 3,9 C 1,3 C 51,5 km/h (7 Bft) 98,26 %
30.11.2015 05:50 10,9 C 62 % 1017,9 hPa 0,0 l/m 36,3 km/h (5 Bft) W-SW 243 0 min 0,000 mm 0,0 UV-I 0 W/m 3,9 C 0,8 C 57,9 km/h (7 Bft) 97,39 %
30.11.2015 05:55 11,1 C 61 % 1017,9 hPa 0,0 l/m 35,8 km/h (5 Bft) W 259 0 min 0,000 mm 0,0 UV-I 0 W/m 3,9 C 1,2 C 64,4 km/h (8 Bft) 96,58 %
30.11.2015 06:00 11,0 C 61 % 1018,1 hPa 0,0 l/m 30,5 km/h (5 Bft) W 266 0 min 0,127 mm 0,0 UV-I 0 W/m 3,8 C 2,0 C 49,9 km/h (6 Bft) 97,46 %
30.11.2015 06:05 11,1 C 61 % 1018,3 hPa 0,0 l/m 31,3 km/h (5 Bft) W 264 0 min 0,000 mm 0,0 UV-I 0 W/m 3,9 C 1,9 C 54,7 km/h (7 Bft) 98,33 %
30.11.2015 06:10 11,0 C 61 % 1018,4 hPa 0,0 l/m 30,3 km/h (5 Bft) W-SW 257 0 min 0,000 mm 0,0 UV-I 0 W/m 3,8 C 2,0 C 46,7 km/h (6 Bft) 99,15 %
30.11.2015 06:15 11,0 C 61 % 1018,5 hPa 0,0 l/m 32,9 km/h (5 Bft) W-SW 250 0 min 0,000 mm 0,0 UV-I 0 W/m 3,8 C 1,5 C 49,9 km/h (6 Bft) 100,00 %
30.11.2015 06:20 11,0 C 62 % 1018,4 hPa 0,0 l/m 25,9 km/h (4 Bft) W 264 0 min 0,000 mm 0,0 UV-I 0 W/m 4,0 C 3,0 C 41,8 km/h (6 Bft) 99,17 %
30.11.2015 06:25 10,9 C 62 % 1018,5 hPa 0,0 l/m 25,3 km/h (4 Bft) W 260 0 min 0,000 mm 0,0 UV-I 0 W/m 3,9 C 3,0 C 40,2 km/h (6 Bft) 98,17 %
30.11.2015 06:30 10,8 C 62 % 1018,4 hPa 0,0 l/m 28,1 km/h (4 Bft) W-SW 238 0 min 0,000 mm 0,0 UV-I 0 W/m 3,8 C 2,2 C 51,5 km/h (7 Bft) 100,00 %
30.11.2015 06:35 10,9 C 62 % 1018,3 hPa 0,0 l/m 31,1 km/h (5 Bft) W 264 0 min 0,000 mm 0,0 UV-I 0 W/m 3,9 C 1,7 C 49,9 km/h (6 Bft) 98,26 %
30.11.2015 06:40 10,8 C 62 % 1018,3 hPa 0,0 l/m 25,5 km/h (4 Bft) SW 232 0 min 0,000 mm 0,0 UV-I 0 W/m 3,8 C 2,8 C 43,5 km/h (6 Bft) 100,00 %
30.11.2015 06:45 10,8 C 62 % 1018,4 hPa 0,0 l/m 25,8 km/h (4 Bft) W-SW 252 0 min 0,000 mm 0,0 UV-I 0 W/m 3,8 C 2,7 C 38,6 km/h (5 Bft) 100,00 %
30.11.2015 06:50 10,8 C 62 % 1018,5 hPa 0,0 l/m 28,1 km/h (4 Bft) W 270 0 min 0,000 mm 0,0 UV-I 0 W/m 3,8 C 2,2 C 49,9 km/h (6 Bft) 99,17 %
30.11.2015 06:55 10,8 C 63 % 1018,5 hPa 0,0 l/m 27,8 km/h (4 Bft) W-SW 251 0 min 0,000 mm 0,0 UV-I 0 W/m 4,0 C 2,3 C 45,1 km/h (6 Bft) 100,00 %
30.11.2015 07:00 10,8 C 65 % 1018,4 hPa 0,0 l/m 27,5 km/h (4 Bft) SW 234 0 min 0,000 mm 0,0 UV-I 0 W/m 4,5 C 2,3 C 53,1 km/h (7 Bft) 98,25 %
30.11.2015 07:05 10,7 C 65 % 1018,4 hPa 0,0 l/m 34,1 km/h (5 Bft) W 262 0 min 0,127 mm 0,0 UV-I 0 W/m 4,4 C 0,9 C 59,5 km/h (7 Bft) 98,21 %
30.11.2015 07:10 10,7 C 64 % 1018,5 hPa 0,0 l/m 33,2 km/h (5 Bft) SW 234 0 min 0,000 mm 0,0 UV-I 0 W/m 4,2 C 1,0 C 70,8 km/h (8 Bft) 99,21 %
30.11.2015 07:15 10,8 C 64 % 1018,8 hPa 0,0 l/m 31,2 km/h (5 Bft) W-SW 251 0 min 0,000 mm 0,0 UV-I 0 W/m 4,3 C 1,5 C 59,5 km/h (7 Bft) 98,11 %
30.11.2015 07:20 10,7 C 65 % 1018,4 hPa 0,0 l/m 33,9 km/h (5 Bft) W-SW 242 0 min 0,000 mm 0,0 UV-I 0 W/m 4,4 C 0,9 C 62,8 km/h (8 Bft) 98,46 %
30.11.2015 07:25 10,7 C 66 % 1018,5 hPa 0,0 l/m 32,4 km/h (5 Bft) W-SW 242 0 min 0,000 mm 0,0 UV-I 0 W/m 4,6 C 1,2 C 56,3 km/h (7 Bft) 98,33 %
30.11.2015 07:30 10,5 C 67 % 1018,4 hPa 0,0 l/m 34,3 km/h (5 Bft) W-SW 242 0 min 0,000 mm 0,0 UV-I 0 W/m 4,6 C 0,5 C 51,5 km/h (7 Bft) 98,17 %
30.11.2015 07:35 10,4 C 68 % 1018,5 hPa 0,0 l/m 32,8 km/h (5 Bft) W 271 0 min 0,000 mm 0,0 UV-I 0 W/m 4,8 C 0,7 C 53,1 km/h (7 Bft) 97,58 %
30.11.2015 07:40 10,4 C 68 % 1018,8 hPa 0,0 l/m 34,8 km/h (5 Bft) W-SW 257 0 min 0,000 mm 0,0 UV-I 0 W/m 4,8 C 0,3 C 57,9 km/h (7 Bft) 97,37 %
30.11.2015 07:45 10,4 C 68 % 1018,9 hPa 0,0 l/m 33,1 km/h (5 Bft) W-SW 254 0 min 0,000 mm 0,0 UV-I 0 W/m 4,8 C 0,6 C 54,7 km/h (7 Bft) 97,39 %
30.11.2015 07:50 10,3 C 68 % 1018,8 hPa 0,0 l/m 30,4 km/h (5 Bft) SW 232 0 min 0,000 mm 0,0 UV-I 4 W/m 4,7 C 1,0 C 59,5 km/h (7 Bft) 95,65 %
30.11.2015 07:55 10,2 C 69 % 1019,0 hPa 0,0 l/m 35,1 km/h (5 Bft) SW 232 0 min 0,000 mm 0,0 UV-I 7 W/m 4,8 C -0,0 C 57,9 km/h (7 Bft) 97,37 %
30.11.2015 08:00 10,2 C 69 % 1019,0 hPa 0,0 l/m 30,9 km/h (5 Bft) SW 230 0 min 0,127 mm 0,0 UV-I 9 W/m 4,8 C 0,8 C 51,5 km/h (7 Bft) 97,52 %
30.11.2015 08:05 10,1 C 70 % 1019,1 hPa 0,0 l/m 32,4 km/h (5 Bft) SW 225 0 min 0,000 mm 0,0 UV-I 12 W/m 4,9 C 0,3 C 56,3 km/h (7 Bft) 99,15 %
30.11.2015 08:10 9,9 C 71 % 1019,0 hPa 0,0 l/m 28,4 km/h (4 Bft) W 270 0 min 0,000 mm 0,0 UV-I 19 W/m 4,9 C 0,9 C 56,3 km/h (7 Bft) 99,19 %
30.11.2015 08:15 9,8 C 72 % 1019,0 hPa 0,0 l/m 29,4 km/h (5 Bft) S-SW 192 0 min 0,000 mm 0,0 UV-I 17 W/m 5,0 C 0,5 C 45,1 km/h (6 Bft) 98,94 %
30.11.2015 08:20 9,7 C 73 % 1019,1 hPa 0,0 l/m 27,1 km/h (4 Bft) SW 232 0 min 0,000 mm 0,0 UV-I 19 W/m 5,1 C 0,9 C 40,2 km/h (6 Bft) 98,55 %
30.11.2015 08:25 9,6 C 74 % 1019,0 hPa 0,0 l/m 30,4 km/h (5 Bft) W-SW 241 0 min 0,000 mm 0,0 UV-I 22 W/m 5,2 C 0,0 C 54,7 km/h (7 Bft) 99,17 %
30.11.2015 08:30 9,6 C 74 % 1019,1 hPa 0,0 l/m 27,7 km/h (4 Bft) S 175 0 min 0,000 mm 0,0 UV-I 27 W/m 5,2 C 0,6 C 51,5 km/h (7 Bft) 99,06 %
30.11.2015 08:35 9,5 C 74 % 1019,4 hPa 0,0 l/m 33,0 km/h (5 Bft) SW 220 0 min 0,000 mm 0,0 UV-I 26 W/m 5,1 C -0,7 C 49,9 km/h (6 Bft) 99,15 %
30.11.2015 08:40 9,5 C 74 % 1019,5 hPa 0,0 l/m 31,3 km/h (5 Bft) W-SW 250 0 min 0,000 mm 0,0 UV-I 20 W/m 5,1 C -0,3 C 53,1 km/h (7 Bft) 97,64 %
30.11.2015 08:45 9,5 C 74 % 1019,6 hPa 0,0 l/m 27,4 km/h (4 Bft) W-SW 248 0 min 0,000 mm 0,0 UV-I 20 W/m 5,1 C 0,5 C 41,8 km/h (6 Bft) 98,29 %
30.11.2015 08:50 9,4 C 75 % 1019,6 hPa 0,0 l/m 27,3 km/h (4 Bft) SW 219 0 min 0,000 mm 0,0 UV-I 18 W/m 5,2 C 0,4 C 56,3 km/h (7 Bft) 98,21 %
30.11.2015 08:55 9,3 C 76 % 1019,6 hPa 0,0 l/m 25,1 km/h (4 Bft) SW 233 0 min 0,000 mm 0,0 UV-I 17 W/m 5,3 C 0,9 C 46,7 km/h (6 Bft) 100,00 %
30.11.2015 09:00 9,2 C 76 % 1019,6 hPa 0,0 l/m 26,6 km/h (4 Bft) W-SW 252 0 min 0,076 mm 0,0 UV-I 22 W/m 5,2 C 0,3 C 48,3 km/h (6 Bft) 99,17 %
30.11.2015 09:05 9,2 C 77 % 1019,9 hPa 0,0 l/m 23,6 km/h (4 Bft) SW 236 0 min 0,000 mm 0,0 UV-I 18 W/m 5,4 C 1,1 C 38,6 km/h (5 Bft) 99,05 %
30.11.2015 09:10 9,1 C 78 % 1019,9 hPa 0,0 l/m 23,3 km/h (4 Bft) W-SW 241 0 min 0,000 mm 0,0 UV-I 21 W/m 5,5 C 1,1 C 38,6 km/h (5 Bft) 99,15 %
30.11.2015 09:15 9,1 C 78 % 1019,9 hPa 0,0 l/m 28,2 km/h (4 Bft) SW 232 0 min 0,000 mm 0,0 UV-I 34 W/m 5,5 C -0,2 C 46,7 km/h (6 Bft) 100,00 %
30.11.2015 09:20 9,1 C 78 % 1019,9 hPa 0,0 l/m 25,9 km/h (4 Bft) S-SW 205 0 min 0,000 mm 0,0 UV-I 55 W/m 5,5 C 0,4 C 41,8 km/h (6 Bft) 99,21 %
30.11.2015 09:25 9,2 C 78 % 1020,0 hPa 0,0 l/m 24,8 km/h (4 Bft) SW 227 0 min 0,000 mm 0,0 UV-I 45 W/m 5,6 C 0,8 C 43,5 km/h (6 Bft) 99,15 %
30.11.2015 09:30 9,2 C 78 % 1020,0 hPa 0,0 l/m 23,8 km/h (4 Bft) SW 214 0 min 0,000 mm 0,0 UV-I 28 W/m 5,6 C 1,1 C 33,8 km/h (5 Bft) 100,00 %
30.11.2015 09:35 9,2 C 78 % 1020,1 hPa 0,0 l/m 26,0 km/h (4 Bft) S-SW 199 0 min 0,000 mm 0,0 UV-I 34 W/m 5,6 C 0,5 C 45,1 km/h (6 Bft) 96,77 %
30.11.2015 09:40 9,3 C 77 % 1020,0 hPa 0,0 l/m 28,6 km/h (4 Bft) SW 232 0 min 0,000 mm 0,0 UV-I 48 W/m 5,5 C -0,0 C 51,5 km/h (7 Bft) 97,25 %
30.11.2015 09:45 9,3 C 77 % 1020,0 hPa 0,0 l/m 26,6 km/h (4 Bft) W-SW 252 0 min 0,000 mm 0,0 UV-I 45 W/m 5,5 C 0,5 C 45,1 km/h (6 Bft) 95,50 %
30.11.2015 09:50 9,3 C 76 % 1020,1 hPa 0,0 l/m 27,6 km/h (4 Bft) W-SW 250 0 min 0,000 mm 0,0 UV-I 44 W/m 5,3 C 0,2 C 57,9 km/h (7 Bft) 97,52 %
30.11.2015 09:55 9,4 C 76 % 1020,1 hPa 0,0 l/m 25,9 km/h (4 Bft) W 267 0 min 0,000 mm 0,0 UV-I 61 W/m 5,4 C 0,8 C 41,8 km/h (6 Bft) 98,17 %
30.11.2015 10:00 9,4 C 75 % 1020,2 hPa 0,0 l/m 29,5 km/h (5 Bft) SW 236 0 min 0,076 mm 0,0 UV-I 50 W/m 5,2 C -0,1 C 51,5 km/h (7 Bft) 97,56 %
30.11.2015 10:05 9,5 C 75 % 1019,9 hPa 0,0 l/m 31,0 km/h (5 Bft) W-SW 246 0 min 0,000 mm 0,0 UV-I 64 W/m 5,3 C -0,3 C 54,7 km/h (7 Bft) 97,52 %
30.11.2015 10:10 9,6 C 75 % 1020,2 hPa 0,0 l/m 21,8 km/h (4 Bft) W-SW 246 0 min 0,000 mm 0,0 UV-I 58 W/m 5,4 C 2,2 C 38,6 km/h (5 Bft) 98,31 %
30.11.2015 10:15 9,6 C 74 % 1020,1 hPa 0,0 l/m 32,9 km/h (5 Bft) SW 232 0 min 0,000 mm 0,0 UV-I 67 W/m 5,2 C -0,5 C 54,7 km/h (7 Bft) 100,00 %
30.11.2015 10:20 9,7 C 74 % 1020,1 hPa 0,0 l/m 28,5 km/h (4 Bft) W-SW 241 0 min 0,000 mm 0,0 UV-I 66 W/m 5,3 C 0,6 C 46,7 km/h (6 Bft) 96,61 %
30.11.2015 10:25 9,8 C 74 % 1020,3 hPa 0,0 l/m 32,2 km/h (5 Bft) W-SW 247 0 min 0,000 mm 0,0 UV-I 59 W/m 5,4 C -0,1 C 51,5 km/h (7 Bft) 97,37 %
30.11.2015 10:30 9,7 C 75 % 1020,3 hPa 0,0 l/m 26,6 km/h (4 Bft) SW 220 0 min 0,000 mm 0,0 UV-I 57 W/m 5,5 C 1,0 C 45,1 km/h (6 Bft) 98,69 %
30.11.2015 10:35 9,7 C 76 % 1020,4 hPa 0,0 l/m 29,5 km/h (5 Bft) SW 222 0 min 0,000 mm 0,0 UV-I 35 W/m 5,7 C 0,3 C 57,9 km/h (7 Bft) 99,15 %
30.11.2015 10:40 9,6 C 76 % 1020,3 hPa 0,0 l/m 28,4 km/h (4 Bft) SW 217 0 min 0,000 mm 0,0 UV-I 46 W/m 5,6 C 0,5 C 57,9 km/h (7 Bft) 99,19 %
30.11.2015 10:45 9,6 C 76 % 1020,3 hPa 0,0 l/m 28,4 km/h (4 Bft) W 259 0 min 0,000 mm 0,0 UV-I 58 W/m 5,6 C 0,5 C 45,1 km/h (6 Bft) 100,00 %
30.11.2015 10:50 9,6 C 76 % 1020,3 hPa 0,0 l/m 26,2 km/h (4 Bft) W 278 0 min 0,000 mm 0,0 UV-I 61 W/m 5,6 C 1,0 C 43,5 km/h (6 Bft) 99,08 %
30.11.2015 10:55 9,7 C 75 % 1020,1 hPa 0,0 l/m 31,5 km/h (5 Bft) S-SW 209 0 min 0,000 mm 0,0 UV-I 116 W/m 5,5 C -0,1 C 56,3 km/h (7 Bft) 99,13 %
30.11.2015 11:00 9,9 C 74 % 1020,0 hPa 0,0 l/m 31,4 km/h (5 Bft) W-SW 256 0 min 0,102 mm 0,0 UV-I 129 W/m 5,5 C 0,2 C 45,1 km/h (6 Bft) 99,15 %
30.11.2015 11:05 10,1 C 73 % 1020,0 hPa 0,0 l/m 29,9 km/h (5 Bft) SW 231 0 min 0,000 mm 0,0 UV-I 94 W/m 5,5 C 0,8 C 56,3 km/h (7 Bft) 99,15 %
30.11.2015 11:10 10,2 C 72 % 1019,9 hPa 0,0 l/m 33,9 km/h (5 Bft) S-SW 201 0 min 0,000 mm 0,0 UV-I 94 W/m 5,4 C 0,2 C 57,9 km/h (7 Bft) 100,00 %
30.11.2015 11:15 10,2 C 73 % 1020,0 hPa 0,0 l/m 26,9 km/h (4 Bft) SW 221 0 min 0,000 mm 0,0 UV-I 113 W/m 5,6 C 1,6 C 49,9 km/h (6 Bft) 100,00 %
30.11.2015 11:20 10,2 C 73 % 1019,8 hPa 0,0 l/m 31,1 km/h (5 Bft) S-SW 211 0 min 0,000 mm 0,0 UV-I 116 W/m 5,6 C 0,7 C 46,7 km/h (6 Bft) 100,00 %
30.11.2015 11:25 10,2 C 73 % 1019,9 hPa 0,0 l/m 29,6 km/h (5 Bft) W 278 0 min 0,000 mm 0,0 UV-I 121 W/m 5,6 C 1,0 C 46,7 km/h (6 Bft) 100,00 %
30.11.2015 11:30 10,2 C 73 % 1019,8 hPa 0,0 l/m 31,3 km/h (5 Bft) W-SW 250 0 min 0,000 mm 0,5 UV-I 135 W/m 5,6 C 0,7 C 51,5 km/h (7 Bft) 100,00 %
30.11.2015 11:35 10,2 C 73 % 1019,7 hPa 0,0 l/m 34,4 km/h (5 Bft) S-SW 207 0 min 0,000 mm 0,5 UV-I 163 W/m 5,6 C 0,1 C 57,9 km/h (7 Bft) 98,21 %
30.11.2015 11:40 10,3 C 73 % 1019,7 hPa 0,0 l/m 33,7 km/h (5 Bft) SW 235 0 min 0,000 mm 0,6 UV-I 179 W/m 5,7 C 0,4 C 54,7 km/h (7 Bft) 97,58 %
30.11.2015 11:45 10,3 C 73 % 1019,7 hPa 0,0 l/m 33,6 km/h (5 Bft) W 263 0 min 0,000 mm 0,5 UV-I 145 W/m 5,7 C 0,4 C 59,5 km/h (7 Bft) 95,61 %
30.11.2015 11:50 10,3 C 73 % 1019,9 hPa 0,0 l/m 31,9 km/h (5 Bft) W-SW 242 0 min 0,000 mm 0,2 UV-I 118 W/m 5,7 C 0,7 C 49,9 km/h (6 Bft) 96,33 %
30.11.2015 11:55 10,3 C 73 % 1019,9 hPa 0,0 l/m 29,8 km/h (5 Bft) SW 221 0 min 0,000 mm 0,0 UV-I 93 W/m 5,7 C 1,1 C 51,5 km/h (7 Bft) 97,64 %
30.11.2015 12:00 10,3 C 73 % 1019,8 hPa 0,0 l/m 31,5 km/h (5 Bft) SW 223 0 min 0,152 mm 0,0 UV-I 85 W/m 5,7 C 0,8 C 48,3 km/h (6 Bft) 98,10 %
30.11.2015 12:05 10,3 C 72 % 1019,9 hPa 0,0 l/m 31,7 km/h (5 Bft) W 260 0 min 0,000 mm 0,0 UV-I 91 W/m 5,5 C 0,7 C 57,9 km/h (7 Bft) 97,46 %
30.11.2015 12:10 10,3 C 73 % 1019,9 hPa 0,0 l/m 32,7 km/h (5 Bft) SW 216 0 min 0,000 mm 0,0 UV-I 74 W/m 5,7 C 0,5 C 56,3 km/h (7 Bft) 99,21 %
30.11.2015 12:15 10,2 C 73 % 1019,9 hPa 0,0 l/m 29,8 km/h (5 Bft) SW 220 0 min 0,000 mm 0,0 UV-I 64 W/m 5,6 C 1,0 C 53,1 km/h (7 Bft) 97,32 %
30.11.2015 12:20 10,2 C 74 % 1020,0 hPa 0,0 l/m 29,3 km/h (5 Bft) W 275 0 min 0,000 mm 0,0 UV-I 57 W/m 5,8 C 1,1 C 51,5 km/h (7 Bft) 98,39 %
30.11.2015 12:25 10,2 C 74 % 1020,0 hPa 0,0 l/m 28,4 km/h (4 Bft) SW 229 0 min 0,000 mm 0,0 UV-I 55 W/m 5,8 C 1,3 C 48,3 km/h (6 Bft) 99,08 %
30.11.2015 12:30 10,1 C 74 % 1020,1 hPa 0,0 l/m 25,1 km/h (4 Bft) W 263 0 min 0,000 mm 0,0 UV-I 56 W/m 5,7 C 1,9 C 40,2 km/h (6 Bft) 99,17 %
30.11.2015 12:35 10,1 C 74 % 1020,1 hPa 0,0 l/m 25,3 km/h (4 Bft) W 262 0 min 0,000 mm 0,0 UV-I 56 W/m 5,7 C 1,9 C 49,9 km/h (6 Bft) 100,00 %
30.11.2015 12:40 10,0 C 75 % 1020,3 hPa 0,0 l/m 25,2 km/h (4 Bft) S-SW 209 0 min 0,000 mm 0,0 UV-I 40 W/m 5,8 C 1,8 C 38,6 km/h (5 Bft) 99,17 %
30.11.2015 12:45 10,0 C 75 % 1020,1 hPa 0,0 l/m 27,9 km/h (4 Bft) SW 218 0 min 0,000 mm 0,0 UV-I 36 W/m 5,8 C 1,1 C 51,5 km/h (7 Bft) 100,00 %
30.11.2015 12:50 10,1 C 74 % 1020,1 hPa 0,0 l/m 27,8 km/h (4 Bft) W-SW 244 0 min 0,000 mm 0,0 UV-I 31 W/m 5,7 C 1,3 C 48,3 km/h (6 Bft) 98,37 %
30.11.2015 12:55 10,1 C 74 % 1020,2 hPa 0,0 l/m 27,6 km/h (4 Bft) SW 234 0 min 0,000 mm 0,0 UV-I 35 W/m 5,7 C 1,3 C 45,1 km/h (6 Bft) 99,06 %
30.11.2015 13:00 10,1 C 74 % 1020,3 hPa 0,0 l/m 24,6 km/h (4 Bft) SW 220 0 min 0,102 mm 0,0 UV-I 38 W/m 5,7 C 2,1 C 43,5 km/h (6 Bft) 99,23 %
30.11.2015 13:05 10,0 C 74 % 1020,3 hPa 0,0 l/m 24,2 km/h (4 Bft) S-SW 212 0 min 0,000 mm 0,0 UV-I 28 W/m 5,6 C 2,0 C 49,9 km/h (6 Bft) 100,00 %
30.11.2015 13:10 10,1 C 74 % 1020,3 hPa 0,0 l/m 26,2 km/h (4 Bft) SW 227 0 min 0,000 mm 0,0 UV-I 31 W/m 5,7 C 1,7 C 41,8 km/h (6 Bft) 100,00 %
30.11.2015 13:15 10,0 C 75 % 1020,3 hPa 0,0 l/m 23,0 km/h (4 Bft) W-SW 245 0 min 0,000 mm 0,0 UV-I 31 W/m 5,8 C 2,4 C 45,1 km/h (6 Bft) 99,11 %
30.11.2015 13:20 10,0 C 74 % 1020,3 hPa 0,0 l/m 25,4 km/h (4 Bft) S-SW 199 0 min 0,000 mm 0,0 UV-I 33 W/m 5,6 C 1,7 C 41,8 km/h (6 Bft) 99,17 %
30.11.2015 13:25 10,1 C 74 % 1020,3 hPa 0,0 l/m 25,8 km/h (4 Bft) SW 233 0 min 0,000 mm 0,0 UV-I 30 W/m 5,7 C 1,8 C 45,1 km/h (6 Bft) 98,17 %
30.11.2015 13:30 9,9 C 75 % 1020,3 hPa 0,0 l/m 25,7 km/h (4 Bft) W 263 0 min 0,000 mm 0,0 UV-I 27 W/m 5,7 C 1,5 C 45,1 km/h (6 Bft) 98,31 %
30.11.2015 13:35 9,9 C 75 % 1020,4 hPa 0,0 l/m 23,5 km/h (4 Bft) SW 223 0 min 0,000 mm 0,0 UV-I 29 W/m 5,7 C 2,1 C 41,8 km/h (6 Bft) 99,15 %
30.11.2015 13:40 9,8 C 76 % 1020,3 hPa 0,0 l/m 25,4 km/h (4 Bft) SW 217 0 min 0,000 mm 0,0 UV-I 27 W/m 5,8 C 1,5 C 38,6 km/h (5 Bft) 96,77 %
30.11.2015 13:45 9,7 C 77 % 1020,4 hPa 0,0 l/m 22,9 km/h (4 Bft) W-SW 255 0 min 0,000 mm 0,0 UV-I 25 W/m 5,9 C 2,0 C 38,6 km/h (5 Bft) 97,32 %
30.11.2015 13:50 9,6 C 78 % 1020,4 hPa 0,0 l/m 24,4 km/h (4 Bft) SW 219 0 min 0,000 mm 0,0 UV-I 34 W/m 6,0 C 1,5 C 43,5 km/h (6 Bft) 96,75 %
30.11.2015 13:55 9,5 C 79 % 1020,5 hPa 0,0 l/m 27,7 km/h (4 Bft) W-SW 238 0 min 0,000 mm 0,0 UV-I 31 W/m 6,0 C 0,5 C 43,5 km/h (6 Bft) 97,32 %
30.11.2015 14:00 9,5 C 79 % 1020,4 hPa 0,0 l/m 23,2 km/h (4 Bft) SW 234 0 min 0,076 mm 0,0 UV-I 30 W/m 6,0 C 1,7 C 41,8 km/h (6 Bft) 94,87 %
30.11.2015 14:05 9,5 C 79 % 1020,4 hPa 0,0 l/m 23,5 km/h (4 Bft) W-SW 242 0 min 0,000 mm 0,0 UV-I 26 W/m 6,0 C 1,6 C 35,4 km/h (5 Bft) 96,61 %
30.11.2015 14:10 9,4 C 79 % 1020,5 hPa 0,0 l/m 21,6 km/h (4 Bft) W-SW 246 0 min 0,000 mm 0,0 UV-I 22 W/m 5,9 C 2,0 C 37,0 km/h (5 Bft) 99,15 %
30.11.2015 14:15 9,3 C 80 % 1020,6 hPa 0,0 l/m 18,5 km/h (3 Bft) SW 215 0 min 0,000 mm 0,0 UV-I 18 W/m 6,0 C 2,9 C 35,4 km/h (5 Bft) 98,29 %
30.11.2015 14:20 9,3 C 80 % 1020,5 hPa 0,0 l/m 24,7 km/h (4 Bft) W-SW 238 0 min 0,000 mm 0,0 UV-I 19 W/m 6,0 C 1,0 C 46,7 km/h (6 Bft) 99,19 %
30.11.2015 14:25 9,1 C 81 % 1020,5 hPa 0,0 l/m 22,8 km/h (4 Bft) SW 232 0 min 0,000 mm 0,0 UV-I 18 W/m 6,0 C 1,2 C 33,8 km/h (5 Bft) 100,00 %
30.11.2015 14:30 9,1 C 81 % 1020,5 hPa 0,0 l/m 24,1 km/h (4 Bft) SW 230 0 min 0,000 mm 0,0 UV-I 16 W/m 6,0 C 0,9 C 35,4 km/h (5 Bft) 100,00 %
30.11.2015 14:35 9,0 C 82 % 1020,7 hPa 0,0 l/m 22,8 km/h (4 Bft) SW 236 0 min 0,000 mm 0,0 UV-I 14 W/m 6,1 C 1,1 C 38,6 km/h (5 Bft) 99,11 %
30.11.2015 14:40 8,9 C 83 % 1020,5 hPa 0,0 l/m 23,4 km/h (4 Bft) SW 226 0 min 0,000 mm 0,0 UV-I 15 W/m 6,2 C 0,8 C 41,8 km/h (6 Bft) 100,00 %
30.11.2015 14:45 8,9 C 82 % 1020,4 hPa 0,0 l/m 24,7 km/h (4 Bft) W-SW 248 0 min 0,000 mm 0,0 UV-I 15 W/m 6,0 C 0,4 C 41,8 km/h (6 Bft) 98,33 %
30.11.2015 14:50 8,9 C 82 % 1020,5 hPa 0,2 l/m 25,4 km/h (4 Bft) SW 233 0 min 0,000 mm 0,0 UV-I 16 W/m 6,0 C 0,2 C 41,8 km/h (6 Bft) 100,00 %
30.11.2015 14:55 9,1 C 81 % 1020,5 hPa 0,0 l/m 26,0 km/h (4 Bft) SW 232 0 min 0,000 mm 0,0 UV-I 18 W/m 6,0 C 0,3 C 45,1 km/h (6 Bft) 100,00 %
30.11.2015 15:00 9,1 C 80 % 1020,5 hPa 0,0 l/m 23,2 km/h (4 Bft) W-SW 248 0 min 0,000 mm 0,0 UV-I 17 W/m 5,8 C 1,1 C 37,0 km/h (5 Bft) 99,13 %
30.11.2015 15:05 9,2 C 79 % 1020,4 hPa 0,0 l/m 26,7 km/h (4 Bft) W 267 0 min 0,051 mm 0,0 UV-I 14 W/m 5,8 C 0,3 C 38,6 km/h (5 Bft) 100,00 %
30.11.2015 15:10 9,3 C 80 % 1020,4 hPa 0,0 l/m 21,2 km/h (4 Bft) SW 233 0 min 0,000 mm 0,0 UV-I 13 W/m 6,0 C 2,0 C 33,8 km/h (5 Bft) 98,41 %
30.11.2015 15:15 9,2 C 80 % 1020,4 hPa 0,0 l/m 20,9 km/h (4 Bft) W-SW 252 0 min 0,000 mm 0,0 UV-I 11 W/m 5,9 C 2,0 C 33,8 km/h (5 Bft) 99,13 %
30.11.2015 15:20 9,2 C 79 % 1020,4 hPa 0,0 l/m 19,7 km/h (3 Bft) SW 230 0 min 0,000 mm 0,0 UV-I 9 W/m 5,8 C 2,4 C 29,0 km/h (5 Bft) 99,17 %
30.11.2015 15:25 9,2 C 79 % 1020,4 hPa 0,0 l/m 18,5 km/h (3 Bft) S-SW 209 0 min 0,000 mm 0,0 UV-I 9 W/m 5,8 C 2,8 C 32,2 km/h (5 Bft) 100,00 %
30.11.2015 15:30 9,3 C 79 % 1020,4 hPa 0,0 l/m 22,0 km/h (4 Bft) SW 234 0 min 0,000 mm 0,0 UV-I 9 W/m 5,8 C 1,7 C 38,6 km/h (5 Bft) 99,13 %
30.11.2015 15:35 9,3 C 79 % 1020,3 hPa 0,0 l/m 23,9 km/h (4 Bft) W-SW 258 0 min 0,000 mm 0,0 UV-I 8 W/m 5,8 C 1,2 C 38,6 km/h (5 Bft) 100,00 %
30.11.2015 15:40 9,4 C 79 % 1020,4 hPa 0,0 l/m 25,5 km/h (4 Bft) S-SW 195 0 min 0,000 mm 0,0 UV-I 6 W/m 5,9 C 0,9 C 37,0 km/h (5 Bft) 96,83 %
30.11.2015 15:45 9,3 C 79 % 1020,3 hPa 0,0 l/m 23,9 km/h (4 Bft) S-SW 200 0 min 0,000 mm 0,0 UV-I 5 W/m 5,8 C 1,2 C 38,6 km/h (5 Bft) 96,52 %
30.11.2015 15:50 9,3 C 79 % 1020,5 hPa 0,0 l/m 23,6 km/h (4 Bft) W-SW 252 0 min 0,000 mm 0,0 UV-I 4 W/m 5,8 C 1,3 C 38,6 km/h (5 Bft) 96,58 %
30.11.2015 15:55 9,2 C 79 % 1020,2 hPa 0,2 l/m 27,4 km/h (4 Bft) SW 235 0 min 0,000 mm 0,0 UV-I 0 W/m 5,8 C 0,1 C 43,5 km/h (6 Bft) 98,26 %
30.11.2015 16:00 9,2 C 80 % 1020,1 hPa 0,0 l/m 24,2 km/h (4 Bft) S 171 0 min 0,000 mm 0,0 UV-I 0 W/m 5,9 C 1,0 C 40,2 km/h (6 Bft) 96,43 %
30.11.2015 16:05 9,2 C 79 % 1019,9 hPa 0,0 l/m 26,1 km/h (4 Bft) SW 227 0 min 0,050 mm 0,0 UV-I 0 W/m 5,8 C 0,5 C 38,6 km/h (5 Bft) 97,56 %
30.11.2015 16:10 9,2 C 79 % 1019,8 hPa 0,0 l/m 22,2 km/h (4 Bft) SW 235 0 min 0,000 mm 0,0 UV-I 0 W/m 5,8 C 1,5 C 35,4 km/h (5 Bft) 97,58 %
30.11.2015 16:15 9,2 C 79 % 1019,9 hPa 0,0 l/m 21,3 km/h (4 Bft) SW 229 0 min 0,000 mm 0,0 UV-I 0 W/m 5,8 C 1,8 C 33,8 km/h (5 Bft) 96,49 %
30.11.2015 16:20 9,2 C 79 % 1019,8 hPa 0,0 l/m 21,3 km/h (4 Bft) W-SW 249 0 min 0,000 mm 0,0 UV-I 0 W/m 5,8 C 1,8 C 37,0 km/h (5 Bft) 97,39 %
30.11.2015 16:25 9,2 C 79 % 1019,7 hPa 0,0 l/m 21,2 km/h (4 Bft) W-SW 248 0 min 0,000 mm 0,0 UV-I 0 W/m 5,8 C 1,9 C 33,8 km/h (5 Bft) 100,00 %
30.11.2015 16:30 9,2 C 79 % 1019,7 hPa 0,0 l/m 20,3 km/h (4 Bft) SW 229 0 min 0,000 mm 0,0 UV-I 0 W/m 5,8 C 2,2 C 32,2 km/h (5 Bft) 97,44 %
30.11.2015 16:35 9,2 C 78 % 1019,6 hPa 0,0 l/m 19,3 km/h (3 Bft) W-SW 240 0 min 0,000 mm 0,0 UV-I 0 W/m 5,6 C 2,5 C 32,2 km/h (5 Bft) 100,00 %
30.11.2015 16:40 9,2 C 78 % 1019,5 hPa 0,0 l/m 21,2 km/h (4 Bft) SW 221 0 min 0,000 mm 0,0 UV-I 0 W/m 5,6 C 1,9 C 38,6 km/h (5 Bft) 100,00 %
30.11.2015 16:45 9,4 C 76 % 1019,5 hPa 0,0 l/m 24,3 km/h (4 Bft) SW 225 0 min 0,000 mm 0,0 UV-I 0 W/m 5,4 C 1,2 C 43,5 km/h (6 Bft) 100,00 %
30.11.2015 16:50 9,6 C 75 % 1019,6 hPa 0,0 l/m 22,4 km/h (4 Bft) W 269 0 min 0,000 mm 0,0 UV-I 0 W/m 5,4 C 2,0 C 32,2 km/h (5 Bft) 100,00 %
30.11.2015 16:55 9,6 C 75 % 1019,5 hPa 0,0 l/m 20,9 km/h (4 Bft) SW 232 0 min 0,000 mm 0,0 UV-I 0 W/m 5,4 C 2,5 C 32,2 km/h (5 Bft) 100,00 %
30.11.2015 17:00 9,6 C 74 % 1019,6 hPa 0,0 l/m 21,6 km/h (4 Bft) W-SW 247 0 min 0,051 mm 0,0 UV-I 0 W/m 5,2 C 2,3 C 35,4 km/h (5 Bft) 99,15 %
30.11.2015 17:05 9,7 C 73 % 1019,5 hPa 0,0 l/m 22,6 km/h (4 Bft) SW 223 0 min 0,000 mm 0,0 UV-I 0 W/m 5,1 C 2,1 C 38,6 km/h (5 Bft) 100,00 %
30.11.2015 17:10 9,8 C 72 % 1019,3 hPa 0,0 l/m 23,6 km/h (4 Bft) W-SW 244 0 min 0,000 mm 0,0 UV-I 0 W/m 5,0 C 1,9 C 41,8 km/h (6 Bft) 97,30 %
30.11.2015 17:15 9,9 C 71 % 1019,3 hPa 0,0 l/m 21,6 km/h (4 Bft) SW 236 0 min 0,000 mm 0,0 UV-I 0 W/m 4,9 C 2,7 C 38,6 km/h (5 Bft) 99,15 %
30.11.2015 17:20 10,1 C 70 % 1019,4 hPa 0,0 l/m 22,5 km/h (4 Bft) W 262 0 min 0,000 mm 0,0 UV-I 0 W/m 4,9 C 2,7 C 40,2 km/h (6 Bft) 100,00 %
30.11.2015 17:25 10,2 C 69 % 1019,3 hPa 0,0 l/m 26,3 km/h (4 Bft) W 261 0 min 0,000 mm 0,0 UV-I 0 W/m 4,8 C 1,8 C 41,8 km/h (6 Bft) 99,12 %
30.11.2015 17:30 10,3 C 68 % 1019,2 hPa 0,0 l/m 23,7 km/h (4 Bft) W 267 0 min 0,000 mm 0,0 UV-I 0 W/m 4,7 C 2,6 C 35,4 km/h (5 Bft) 100,00 %
30.11.2015 17:35 10,4 C 67 % 1019,3 hPa 0,0 l/m 27,2 km/h (4 Bft) W-SW 251 0 min 0,000 mm 0,0 UV-I 0 W/m 4,5 C 1,8 C 51,5 km/h (7 Bft) 99,13 %
30.11.2015 17:40 10,5 C 67 % 1019,3 hPa 0,0 l/m 25,1 km/h (4 Bft) W-SW 248 0 min 0,000 mm 0,0 UV-I 0 W/m 4,6 C 2,5 C 41,8 km/h (6 Bft) 99,21 %
30.11.2015 17:45 10,5 C 67 % 1019,3 hPa 0,0 l/m 23,6 km/h (4 Bft) W 273 0 min 0,000 mm 0,0 UV-I 0 W/m 4,6 C 2,9 C 38,6 km/h (5 Bft) 100,00 %
30.11.2015 17:50 10,4 C 67 % 1019,3 hPa 0,0 l/m 22,2 km/h (4 Bft) SW 226 0 min 0,000 mm 0,0 UV-I 0 W/m 4,5 C 3,1 C 35,4 km/h (5 Bft) 95,12 %
30.11.2015 17:55 10,5 C 66 % 1019,3 hPa 0,0 l/m 26,3 km/h (4 Bft) W-SW 251 0 min 0,000 mm 0,0 UV-I 0 W/m 4,4 C 2,2 C 43,5 km/h (6 Bft) 98,31 %
30.11.2015 18:00 10,5 C 66 % 1019,3 hPa 0,0 l/m 24,0 km/h (4 Bft) W-SW 249 0 min 0,076 mm 0,0 UV-I 0 W/m 4,4 C 2,8 C 35,4 km/h (5 Bft) 96,43 %
30.11.2015 18:05 10,6 C 66 % 1019,1 hPa 0,0 l/m 27,1 km/h (4 Bft) W 264 0 min 0,000 mm 0,0 UV-I 0 W/m 4,5 C 2,1 C 43,5 km/h (6 Bft) 95,00 %
30.11.2015 18:10 10,6 C 66 % 1019,3 hPa 0,0 l/m 24,3 km/h (4 Bft) W-SW 258 0 min 0,000 mm 0,0 UV-I 0 W/m 4,5 C 2,8 C 37,0 km/h (5 Bft) 95,76 %
30.11.2015 18:15 10,6 C 66 % 1019,1 hPa 0,0 l/m 26,1 km/h (4 Bft) SW 217 0 min 0,000 mm 0,0 UV-I 0 W/m 4,5 C 2,4 C 51,5 km/h (7 Bft) 98,17 %
30.11.2015 18:20 10,6 C 66 % 1019,0 hPa 0,0 l/m 22,5 km/h (4 Bft) SW 235 0 min 0,000 mm 0,0 UV-I 0 W/m 4,5 C 3,3 C 32,2 km/h (5 Bft) 96,12 %
30.11.2015 18:25 10,6 C 66 % 1019,1 hPa 0,0 l/m 25,8 km/h (4 Bft) S-SW 194 0 min 0,000 mm 0,0 UV-I 0 W/m 4,5 C 2,4 C 38,6 km/h (5 Bft) 99,11 %
30.11.2015 18:30 10,6 C 66 % 1019,0 hPa 0,0 l/m 29,6 km/h (5 Bft) W 262 0 min 0,000 mm 0,0 UV-I 0 W/m 4,5 C 1,6 C 49,9 km/h (6 Bft) 100,00 %
30.11.2015 18:35 10,6 C 66 % 1019,1 hPa 0,0 l/m 26,0 km/h (4 Bft) W 279 0 min 0,000 mm 0,0 UV-I 0 W/m 4,5 C 2,4 C 40,2 km/h (6 Bft) 98,11 %
30.11.2015 18:40 10,7 C 66 % 1019,1 hPa 0,0 l/m 27,3 km/h (4 Bft) S 190 0 min 0,000 mm 0,0 UV-I 0 W/m 4,6 C 2,2 C 46,7 km/h (6 Bft) 99,19 %
30.11.2015 18:45 10,7 C 66 % 1019,3 hPa 0,0 l/m 27,6 km/h (4 Bft) W-SW 254 0 min 0,000 mm 0,0 UV-I 0 W/m 4,6 C 2,2 C 45,1 km/h (6 Bft) 99,10 %
30.11.2015 18:50 10,7 C 66 % 1019,2 hPa 0,0 l/m 25,7 km/h (4 Bft) W 259 0 min 0,000 mm 0,0 UV-I 0 W/m 4,6 C 2,6 C 41,8 km/h (6 Bft) 99,19 %
30.11.2015 18:55 10,7 C 66 % 1019,3 hPa 0,0 l/m 25,5 km/h (4 Bft) W-SW 250 0 min 0,000 mm 0,0 UV-I 0 W/m 4,6 C 2,7 C 53,1 km/h (7 Bft) 100,00 %
30.11.2015 19:00 10,7 C 66 % 1019,3 hPa 0,0 l/m 21,1 km/h (4 Bft) W 265 0 min 0,102 mm 0,0 UV-I 0 W/m 4,6 C 3,9 C 32,2 km/h (5 Bft) 100,00 %
30.11.2015 19:05 10,7 C 66 % 1019,2 hPa 0,0 l/m 23,1 km/h (4 Bft) SW 234 0 min 0,000 mm 0,0 UV-I 0 W/m 4,6 C 3,3 C 38,6 km/h (5 Bft) 100,00 %
30.11.2015 19:10 10,7 C 66 % 1019,4 hPa 0,0 l/m 22,1 km/h (4 Bft) SW 229 0 min 0,000 mm 0,0 UV-I 0 W/m 4,6 C 3,6 C 35,4 km/h (5 Bft) 100,00 %
30.11.2015 19:15 10,7 C 65 % 1019,4 hPa 0,0 l/m 25,0 km/h (4 Bft) W-SW 242 0 min 0,000 mm 0,0 UV-I 0 W/m 4,4 C 2,8 C 40,2 km/h (6 Bft) 100,00 %
30.11.2015 19:20 10,8 C 65 % 1019,5 hPa 0,0 l/m 24,7 km/h (4 Bft) SW 235 0 min 0,000 mm 0,0 UV-I 0 W/m 4,5 C 3,0 C 48,3 km/h (6 Bft) 99,19 %
30.11.2015 19:25 10,8 C 65 % 1019,4 hPa 0,0 l/m 20,5 km/h (4 Bft) W-SW 248 0 min 0,000 mm 0,0 UV-I 0 W/m 4,5 C 4,2 C 29,0 km/h (5 Bft) 100,00 %
30.11.2015 19:30 10,8 C 65 % 1019,5 hPa 0,0 l/m 24,1 km/h (4 Bft) W 262 0 min 0,000 mm 0,0 UV-I 0 W/m 4,5 C 3,1 C 38,6 km/h (5 Bft) 99,13 %
30.11.2015 19:35 10,9 C 64 % 1019,4 hPa 0,0 l/m 27,0 km/h (4 Bft) W 264 0 min 0,000 mm 0,0 UV-I 0 W/m 4,4 C 2,6 C 48,3 km/h (6 Bft) 99,21 %
30.11.2015 19:40 10,9 C 64 % 1019,4 hPa 0,0 l/m 27,1 km/h (4 Bft) S-SW 213 0 min 0,000 mm 0,0 UV-I 0 W/m 4,4 C 2,5 C 41,8 km/h (6 Bft) 98,33 %
30.11.2015 19:45 10,9 C 64 % 1019,5 hPa 0,0 l/m 22,6 km/h (4 Bft) W-SW 246 0 min 0,000 mm 0,0 UV-I 0 W/m 4,4 C 3,7 C 46,7 km/h (6 Bft) 99,11 %
30.11.2015 19:50 10,7 C 64 % 1019,3 hPa 0,0 l/m 22,6 km/h (4 Bft) S-SW 212 0 min 0,000 mm 0,0 UV-I 0 W/m 4,2 C 3,4 C 33,8 km/h (5 Bft) 98,21 %
30.11.2015 19:55 10,7 C 65 % 1019,2 hPa 0,0 l/m 24,7 km/h (4 Bft) W 262 0 min 0,000 mm 0,0 UV-I 0 W/m 4,4 C 2,9 C 35,4 km/h (5 Bft) 97,44 %
30.11.2015 20:00 10,7 C 64 % 1019,1 hPa 0,0 l/m 25,1 km/h (4 Bft) SW 230 0 min 0,102 mm 0,0 UV-I 0 W/m 4,2 C 2,8 C 43,5 km/h (6 Bft) 97,46 %
30.11.2015 20:05 10,7 C 65 % 1019,1 hPa 0,0 l/m 23,6 km/h (4 Bft) W 259 0 min 0,000 mm 0,0 UV-I 0 W/m 4,4 C 3,1 C 35,4 km/h (5 Bft) 94,02 %
30.11.2015 20:10 10,6 C 65 % 1019,0 hPa 0,0 l/m 19,0 km/h (3 Bft) W 269 0 min 0,000 mm 0,0 UV-I 0 W/m 4,3 C 4,4 C 29,0 km/h (5 Bft) 97,52 %
30.11.2015 20:15 10,5 C 65 % 1019,0 hPa 0,0 l/m 20,1 km/h (4 Bft) S-SW 211 0 min 0,000 mm 0,0 UV-I 0 W/m 4,2 C 3,9 C 35,4 km/h (5 Bft) 96,64 %
30.11.2015 20:20 10,5 C 65 % 1018,8 hPa 0,0 l/m 18,7 km/h (3 Bft) W-SW 244 0 min 0,000 mm 0,0 UV-I 0 W/m 4,2 C 4,4 C 32,2 km/h (5 Bft) 98,25 %
30.11.2015 20:25 10,4 C 65 % 1018,8 hPa 0,0 l/m 19,4 km/h (3 Bft) SW 226 0 min 0,000 mm 0,0 UV-I 0 W/m 4,1 C 4,0 C 27,4 km/h (4 Bft) 97,52 %
30.11.2015 20:30 10,4 C 65 % 1019,0 hPa 0,0 l/m 18,1 km/h (3 Bft) W-SW 240 0 min 0,000 mm 0,0 UV-I 0 W/m 4,1 C 4,4 C 30,6 km/h (5 Bft) 98,11 %
30.11.2015 20:35 10,5 C 64 % 1019,0 hPa 0,0 l/m 21,5 km/h (4 Bft) W-SW 244 0 min 0,000 mm 0,0 UV-I 0 W/m 4,0 C 3,5 C 35,4 km/h (5 Bft) 99,17 %
30.11.2015 20:40 10,6 C 64 % 1018,9 hPa 0,0 l/m 23,5 km/h (4 Bft) W 260 0 min 0,000 mm 0,0 UV-I 0 W/m 4,1 C 3,0 C 46,7 km/h (6 Bft) 100,00 %
30.11.2015 20:45 10,6 C 64 % 1018,8 hPa 0,0 l/m 18,8 km/h (3 Bft) W-SW 242 0 min 0,000 mm 0,0 UV-I 0 W/m 4,1 C 4,5 C 27,4 km/h (4 Bft) 100,00 %
30.11.2015 20:50 10,4 C 65 % 1018,7 hPa 0,0 l/m 18,1 km/h (3 Bft) SW 234 0 min 0,000 mm 0,0 UV-I 0 W/m 4,1 C 4,4 C 27,4 km/h (4 Bft) 100,00 %
30.11.2015 20:55 10,4 C 66 % 1018,7 hPa 0,0 l/m 19,5 km/h (3 Bft) W-SW 239 0 min 0,000 mm 0,0 UV-I 0 W/m 4,3 C 4,0 C 29,0 km/h (5 Bft) 100,00 %
30.11.2015 21:00 10,4 C 65 % 1018,8 hPa 0,0 l/m 21,3 km/h (4 Bft) W-SW 248 0 min 0,076 mm 0,0 UV-I 0 W/m 4,1 C 3,4 C 45,1 km/h (6 Bft) 99,17 %
30.11.2015 21:05 10,4 C 65 % 1018,5 hPa 0,0 l/m 21,2 km/h (4 Bft) W-SW 248 0 min 0,000 mm 0,0 UV-I 0 W/m 4,1 C 3,4 C 41,8 km/h (6 Bft) 99,21 %
30.11.2015 21:10 10,5 C 64 % 1018,6 hPa 0,0 l/m 22,4 km/h (4 Bft) W-SW 252 0 min 0,000 mm 0,0 UV-I 0 W/m 4,0 C 3,2 C 35,4 km/h (5 Bft) 99,06 %
30.11.2015 21:15 10,4 C 64 % 1018,5 hPa 0,0 l/m 19,3 km/h (3 Bft) SW 217 0 min 0,000 mm 0,0 UV-I 0 W/m 3,9 C 4,0 C 30,6 km/h (5 Bft) 99,21 %
30.11.2015 21:20 10,4 C 64 % 1018,4 hPa 0,0 l/m 21,1 km/h (4 Bft) W 260 0 min 0,000 mm 0,0 UV-I 0 W/m 3,9 C 3,5 C 35,4 km/h (5 Bft) 100,00 %
30.11.2015 21:25 10,4 C 64 % 1018,4 hPa 0,0 l/m 19,9 km/h (4 Bft) W-SW 240 0 min 0,000 mm 0,0 UV-I 0 W/m 3,9 C 3,8 C 29,0 km/h (5 Bft) 100,00 %
30.11.2015 21:30 10,4 C 64 % 1018,2 hPa 0,0 l/m 20,8 km/h (4 Bft) SW 228 0 min 0,000 mm 0,0 UV-I 0 W/m 3,9 C 3,6 C 35,4 km/h (5 Bft) 99,11 %
30.11.2015 21:35 10,4 C 64 % 1018,0 hPa 0,0 l/m 21,0 km/h (4 Bft) W 273 0 min 0,000 mm 0,0 UV-I 0 W/m 3,9 C 3,5 C 37,0 km/h (5 Bft) 100,00 %
30.11.2015 21:40 10,5 C 63 % 1018,0 hPa 0,0 l/m 22,6 km/h (4 Bft) SW 234 0 min 0,000 mm 0,0 UV-I 0 W/m 3,8 C 3,2 C 35,4 km/h (5 Bft) 97,83 %
30.11.2015 21:45 10,6 C 63 % 1018,0 hPa 0,0 l/m 22,5 km/h (4 Bft) W-SW 245 0 min 0,000 mm 0,0 UV-I 0 W/m 3,9 C 3,3 C 41,8 km/h (6 Bft) 99,08 %
30.11.2015 21:50 10,6 C 63 % 1017,8 hPa 0,0 l/m 23,7 km/h (4 Bft) W-SW 254 0 min 0,000 mm 0,0 UV-I 0 W/m 3,9 C 3,0 C 45,1 km/h (6 Bft) 98,43 %
30.11.2015 21:55 10,6 C 63 % 1017,7 hPa 0,0 l/m 20,3 km/h (4 Bft) W-SW 257 0 min 0,000 mm 0,0 UV-I 0 W/m 3,9 C 4,0 C 32,2 km/h (5 Bft) 98,86 %
30.11.2015 22:00 10,7 C 61 % 1017,6 hPa 0,0 l/m 28,6 km/h (4 Bft) W-SW 255 0 min 0,076 mm 0,0 UV-I 0 W/m 3,5 C 1,9 C 56,3 km/h (7 Bft) 97,96 %
30.11.2015 22:05 10,8 C 61 % 1017,8 hPa 0,0 l/m 23,1 km/h (4 Bft) SW 217 0 min 0,000 mm 0,0 UV-I 0 W/m 3,6 C 3,4 C 46,7 km/h (6 Bft) 97,87 %
30.11.2015 22:10 10,8 C 61 % 1017,6 hPa 0,0 l/m 21,9 km/h (4 Bft) W-SW 240 0 min 0,000 mm 0,0 UV-I 0 W/m 3,6 C 3,7 C 38,6 km/h (5 Bft) 95,74 %
30.11.2015 22:15 10,7 C 62 % 1017,5 hPa 0,0 l/m 19,7 km/h (3 Bft) W-NW 282 0 min 0,000 mm 0,0 UV-I 0 W/m 3,7 C 4,3 C 32,2 km/h (5 Bft) 97,17 %
30.11.2015 22:20 10,6 C 62 % 1017,6 hPa 0,0 l/m 22,5 km/h (4 Bft) W 266 0 min 0,000 mm 0,0 UV-I 0 W/m 3,6 C 3,3 C 32,2 km/h (5 Bft) 97,56 %
30.11.2015 22:25 10,6 C 62 % 1017,7 hPa 0,0 l/m 22,3 km/h (4 Bft) W-SW 247 0 min 0,000 mm 0,0 UV-I 0 W/m 3,6 C 3,4 C 30,6 km/h (5 Bft) 94,78 %
30.11.2015 22:30 10,7 C 62 % 1017,6 hPa 0,0 l/m 23,0 km/h (4 Bft) SW 231 0 min 0,000 mm 0,0 UV-I 0 W/m 3,7 C 3,3 C 38,6 km/h (5 Bft) 98,39 %
30.11.2015 22:35 10,6 C 62 % 1017,5 hPa 0,0 l/m 22,5 km/h (4 Bft) W-SW 246 0 min 0,000 mm 0,0 UV-I 0 W/m 3,6 C 3,3 C 32,2 km/h (5 Bft) 97,22 %
30.11.2015 22:40 10,5 C 62 % 1017,4 hPa 0,0 l/m 24,1 km/h (4 Bft) SW 219 0 min 0,000 mm 0,0 UV-I 0 W/m 3,5 C 2,7 C 48,3 km/h (6 Bft) 99,13 %
30.11.2015 22:45 10,6 C 61 % 1017,4 hPa 0,0 l/m 26,0 km/h (4 Bft) W-SW 247 0 min 0,000 mm 0,0 UV-I 0 W/m 3,4 C 2,4 C 41,8 km/h (6 Bft) 98,43 %
30.11.2015 22:50 10,7 C 61 % 1017,4 hPa 0,0 l/m 26,6 km/h (4 Bft) W-SW 250 0 min 0,000 mm 0,0 UV-I 0 W/m 3,5 C 2,4 C 40,2 km/h (6 Bft) 100,00 %
30.11.2015 22:55 10,7 C 61 % 1017,3 hPa 0,0 l/m 23,6 km/h (4 Bft) W-SW 246 0 min 0,000 mm 0,0 UV-I 0 W/m 3,5 C 3,1 C 37,0 km/h (5 Bft) 100,00 %
30.11.2015 23:00 10,8 C 61 % 1017,2 hPa 0,0 l/m 27,9 km/h (4 Bft) W-SW 249 0 min 0,102 mm 0,0 UV-I 0 W/m 3,6 C 2,2 C 49,9 km/h (6 Bft) 99,11 %
30.11.2015 23:05 10,8 C 60 % 1017,1 hPa 0,0 l/m 31,4 km/h (5 Bft) SW 226 0 min 0,000 mm 0,0 UV-I 0 W/m 3,4 C 1,5 C 51,5 km/h (7 Bft) 100,00 %
30.11.2015 23:10 10,9 C 61 % 1017,2 hPa 0,0 l/m 23,6 km/h (4 Bft) W 274 0 min 0,000 mm 0,0 UV-I 0 W/m 3,7 C 3,4 C 41,8 km/h (6 Bft) 99,08 %
30.11.2015 23:15 10,8 C 61 % 1017,0 hPa 0,0 l/m 22,6 km/h (4 Bft) W-SW 243 0 min 0,000 mm 0,0 UV-I 0 W/m 3,6 C 3,6 C 46,7 km/h (6 Bft) 97,56 %
30.11.2015 23:20 10,9 C 61 % 1017,1 hPa 0,0 l/m 26,3 km/h (4 Bft) SW 230 0 min 0,000 mm 0,0 UV-I 0 W/m 3,7 C 2,7 C 70,8 km/h (8 Bft) 99,11 %
30.11.2015 23:25 10,8 C 61 % 1017,1 hPa 0,0 l/m 23,0 km/h (4 Bft) S-SW 210 0 min 0,000 mm 0,0 UV-I 0 W/m 3,6 C 3,4 C 35,4 km/h (5 Bft) 100,00 %
30.11.2015 23:30 10,7 C 62 % 1017,2 hPa 0,0 l/m 24,0 km/h (4 Bft) SW 230 0 min 0,000 mm 0,0 UV-I 0 W/m 3,7 C 3,0 C 43,5 km/h (6 Bft) 100,00 %
30.11.2015 23:35 10,7 C 62 % 1017,2 hPa 0,0 l/m 23,5 km/h (4 Bft) W-SW 244 0 min 0,000 mm 0,0 UV-I 0 W/m 3,7 C 3,2 C 48,3 km/h (6 Bft) 99,21 %
30.11.2015 23:40 10,7 C 62 % 1017,2 hPa 0,0 l/m 21,7 km/h (4 Bft) S-SW 197 0 min 0,000 mm 0,0 UV-I 0 W/m 3,7 C 3,7 C 35,4 km/h (5 Bft) 99,06 %
30.11.2015 23:45 10,9 C 61 % 1017,3 hPa 0,0 l/m 27,9 km/h (4 Bft) W 263 0 min 0,000 mm 0,0 UV-I 0 W/m 3,7 C 2,4 C 48,3 km/h (6 Bft) 99,17 %
30.11.2015 23:50 11,3 C 60 % 1017,2 hPa 0,0 l/m 33,7 km/h (5 Bft) W 259 0 min 0,000 mm 0,0 UV-I 0 W/m 3,8 C 1,8 C 69,2 km/h (8 Bft) 99,17 %
30.11.2015 23:55 11,4 C 60 % 1017,3 hPa 0,0 l/m 37,3 km/h (5 Bft) SW 236 0 min 0,000 mm 0,0 UV-I 0 W/m 3,9 C 1,4 C 59,5 km/h (7 Bft) 97,44 %
_ Min-Zeit 00:00 23:05 23:15 - 20:30 - - - - - - 23:05 00:15 20:25 20:05
Minimum _ 8,5 C 60 % 1017,0 hPa - 18,1 km/h (3 Bft) - - - - - - 3,4 C -0,8 C 27,4 km/h (4 Bft) 94,02 %
_ Max-Zeit 23:55 14:40 14:35 01:20 23:55 - - 00:00 12:00 11:40 11:40 14:40 20:45 05:25 00:00
Maximum _ 11,4 C 83 % 1020,7 hPa 0,2 l/m 37,3 km/h
SW (5 Bft)
- - 0 min 0,152 mm 0,6 UV-I 179 W/m 6,2 C 4,5 C 70,8 km/h
SW (8 Bft)
100,00 %
Durchschnitt _ 10,1 C 70 % 1019,0 hPa #0,6 l/m 26,4 km/h (4 Bft) W-SW - #0 min. #2,134 mm 0,5 UV-I 44 W/m 4,8 C 1,8 C 45,1 km/h (6 Bft) 98,61 %